Voltar ao catálogo

ANIK G1

AtivoComunicaçõesGEO
NORAD 39127·PAYLOAD·🇨🇦 Canada

Lançado Apr 15, 2013 de Baikonur Cosmodrome

Loading…

TLE

AtualizadoSource: CelesTrak SupGP

Época: Sep 14, 2026, 04:59 UTC

1 39127C 13014A   26257.20833333  .00000016  00000+0  00000+0 0  2570
2 39127   0.0203 241.3568 0002777 302.3590 137.1744  1.00272506    14

Acompanhe ANIK G1 em tempo real com AllMySat

Download on the App Store